Location: Cercedilla
(40.7379°N, 4.0638°W)
Time: 16:45:22
(UTC+00:00)

STARLINK-1299 - Pass Details

Date: 07 June 2020
Orbit: 568 x 571 km, 53.0° (Epoch: 13 July)

Event Time Altitude Azimuth Distance (km) Brightness Sun altitude
Exits shadow 01:24:17 45° 90° (E) 774 4.4 -24.5°
Drops below altitude 10° 01:27:34 10° 58° (ENE) 1,871 7.0 -24.3°
Sets 01:29:51 0° 55° (NE) 2,772 8.0 -24.1°
